Estación municipal de St. Hilari Sacalm (La Selva, Guilleries)

Consulta los datos en tiempo real de la estación municipal de St. Hilari Sacalm





Hora UTC 18:10
Temperatura 24.0 ºC
Humedad 56.6 %
Presión 1024.1 hPa
Pluja 0.0 mm
Velocidad viento 0.0 km/h
Dirección viento NNE
Radiación solar 7.9 W/m²

Webcam

Datos diarios 2026-09-06



Hora UTC (invierno +1h; verano +2h)
Temperatura (ºC) Humedad (%) Presión (hPa) Velocidad viento (km/h) Precipitación (mm) Radiación solar (W/m²)
Hora UTC Aire Humedad Presión Vel. Dir. Vel. Max Dir. Intent. máx 5 min. Rad. Sol.
00:05 23.4 53.2 1024.7 0.0 NNE 0.0 SSW 0.0 0.1
00:10 23.7 52.5 1024.8 2.6 SW 11.5 SSW 0.0 0.1
00:15 23.6 52.7 1024.8 2.2 SW 11.5 SW 0.0 0.1
00:20 23.4 53.9 1024.7 1.5 WSW 8.8 WSW 0.0 0.1
00:25 23.6 53.7 1024.7 2.6 W 8.8 WNW 0.0 0.1
00:30 24.0 52.7 1024.6 4.9 WNW 14.2 WNW 0.0 0.1
00:35 24.3 51.9 1024.6 3.5 W 11.5 W 0.0 0.1
00:40 24.3 52.2 1024.6 1.1 WSW 6.1 WSW 0.0 0.1
00:45 24.1 52.7 1024.6 0.1 WSW 6.1 W 0.0 0.1
00:50 24.0 53.0 1024.5 0.6 NW 8.8 NW 0.0 0.1
00:55 24.2 52.5 1024.5 2.1 WNW 8.8 NNW 0.0 0.1
01:00 24.2 52.0 1024.5 4.2 WNW 11.5 W 0.0 0.1
01:05 24.2 52.0 1024.4 4.8 WNW 11.5 WNW 0.0 0.2
01:10 24.1 52.0 1024.4 1.7 WNW 14.2 W 0.0 0.1
01:15 24.2 51.6 1024.4 5.4 NW 14.2 WNW 0.0 0.1
01:20 24.4 50.6 1024.3 8.5 NW 16.9 NW 0.0 0.1
01:25 24.6 50.0 1024.3 9.4 NW 19.6 NNW 0.0 0.2
01:30 24.7 49.7 1024.3 3.3 NW 14.2 WNW 0.0 0.1
01:35 24.6 50.2 1024.3 3.5 NW 11.5 N 0.0 0.1
01:40 24.5 50.4 1024.3 4.3 NW 19.6 N 0.0 0.1
01:45 24.5 50.4 1024.3 2.6 WNW 14.2 WSW 0.0 0.1
01:50 24.5 50.4 1024.3 5.1 NW 14.2 NNW 0.0 0.2
01:55 24.6 50.3 1024.3 6.2 NW 16.9 WNW 0.0 0.1
02:00 24.6 50.3 1024.3 7.3 NW 14.2 WNW 0.0 0.1
02:05 24.7 50.0 1024.3 5.7 NW 14.2 N 0.0 0.1
02:10 24.8 49.5 1024.2 6.6 NW 19.6 NW 0.0 0.1
02:15 24.8 49.2 1024.2 6.7 NW 16.9 NW 0.0 0.1
02:20 24.8 49.4 1024.2 6.8 NNW 14.2 WNW 0.0 0.1
02:25 24.8 49.5 1024.2 5.0 NNW 16.9 NNW 0.0 0.1
02:30 24.6 50.1 1024.1 5.1 NNW 14.2 NW 0.0 0.1
02:35 24.6 50.3 1024.1 8.4 NNW 19.6 NW 0.0 0.2
02:40 24.5 50.7 1024.1 6.7 NNW 16.9 NW 0.0 0.2
02:45 24.4 50.8 1024.1 9.0 NNW 19.6 NW 0.0 0.1
02:50 24.5 50.8 1024.1 8.2 NNW 16.9 NW 0.0 0.1
02:55 24.4 51.0 1024.1 8.4 NNW 22.3 NNW 0.0 0.1
03:00 24.6 50.6 1024.1 6.8 NNW 16.9 NNW 0.0 0.1
03:05 24.5 50.7 1024.1 7.9 NNW 16.9 NNW 0.0 0.1
03:10 24.6 50.6 1024.1 6.7 NNW 16.9 WNW 0.0 0.1
03:15 24.6 50.7 1024.1 2.5 NNW 14.2 W 0.0 0.1
03:20 24.7 50.1 1024.0 5.4 WNW 14.2 W 0.0 0.1
03:25 24.7 49.8 1024.0 2.2 W 11.5 W 0.0 0.1
03:30 24.5 50.1 1024.0 1.2 WNW 8.8 NW 0.0 0.1
03:35 24.4 50.1 1023.9 1.8 WNW 11.5 W 0.0 0.1
03:40 24.4 49.2 1023.9 3.7 WNW 11.5 NW 0.0 0.1
03:45 24.6 48.4 1023.9 4.9 NW 14.2 WNW 0.0 0.1
03:50 24.9 46.9 1023.8 3.9 WNW 19.6 WNW 0.0 0.1
03:55 24.9 46.8 1023.8 0.0 NNE 0.0 WSW 0.0 0.1
04:00 24.7 47.0 1023.8 0.0 NNE 0.0 SSE 0.0 0.1
04:05 24.8 45.7 1023.8 0.0 NNE 0.0 SE 0.0 0.1
04:10 25.0 43.7 1023.8 0.0 NNE 0.0 SSE 0.0 0.1
04:15 25.6 39.9 1023.8 0.0 NNE 0.0 S 0.0 0.2
04:20 25.8 39.9 1023.8 0.0 NNE 0.0 SSW 0.0 0.1
04:25 25.6 40.7 1023.8 0.0 NNE 0.0 SW 0.0 0.1
04:30 25.4 41.6 1023.8 0.0 NNE 0.0 SW 0.0 0.1
04:35 25.3 42.4 1023.8 0.0 NNE 0.0 SSW 0.0 0.1
04:40 25.1 43.3 1023.7 0.0 NNE 0.0 S 0.0 0.1
04:45 24.9 44.0 1023.7 0.0 NNE 0.0 SSW 0.0 0.1
04:50 24.7 44.8 1023.7 0.0 NNE 0.0 S 0.0 0.2
04:55 24.7 44.4 1023.7 0.0 NNE 0.0 SE 0.0 0.2
05:00 25.2 43.5 1023.7 0.0 NNE 0.0 S 0.0 0.2
05:05 24.9 44.2 1023.8 0.0 NNE 0.0 WSW 0.0 0.3
05:10 24.6 44.3 1023.8 0.0 NNE 0.0 WSW 0.0 0.7
05:15 24.7 45.0 1023.9 0.0 NNE 0.0 ENE 0.0 1.5
05:20 24.4 46.2 1023.9 0.0 NNE 0.0 NE 0.0 3.0
05:25 24.3 47.1 1023.9 0.0 NNE 0.0 NE 0.0 5.1
05:30 24.1 48.1 1024.0 0.0 NNE 0.0 NE 0.0 8.2
05:35 23.7 49.2 1024.0 0.9 WNW 6.1 WNW 0.0 12.9
05:40 23.3 50.7 1024.0 0.1 W 3.4 W 0.0 17.5
05:45 22.8 52.6 1024.0 0.1 WSW 3.4 SW 0.0 24.0
05:50 22.4 53.8 1024.1 0.1 WSW 3.4 W 0.0 31.4
05:55 22.2 54.4 1024.1 0.1 NW 6.1 NW 0.0 46.5
06:00 22.3 53.6 1024.1 0.1 W 6.1 WNW 0.0 58.3
06:05 22.6 52.5 1024.1 0.3 W 6.1 W 0.0 70.2
06:10 23.1 51.4 1024.2 0.0 NNE 0.0 SW 0.0 83.0
06:15 23.5 50.4 1024.2 0.0 NNE 0.0 SW 0.0 97.0
06:20 23.9 49.7 1024.2 0.0 WSW 3.4 WSW 0.0 110.8
06:25 24.3 48.9 1024.3 0.0 NNE 0.0 SSW 0.0 124.7
06:30 24.7 48.4 1024.3 0.0 NNE 0.0 SW 0.0 138.5
06:35 24.8 48.3 1024.3 0.0 NNE 0.0 WSW 0.0 152.2
06:40 25.2 47.5 1024.4 0.0 NNE 0.0 SW 0.0 166.8
06:45 25.4 47.6 1024.4 0.0 NNE 0.0 SW 0.0 183.2
06:50 25.4 48.0 1024.4 0.0 NNE 0.0 SW 0.0 198.3
06:55 26.0 47.5 1024.4 0.0 NNE 0.0 SW 0.0 212.9
07:00 27.4 43.5 1024.4 0.0 NNE 0.0 SW 0.0 229.5
07:05 28.4 42.3 1024.4 0.0 NNE 0.0 SW 0.0 246.5
07:10 28.7 41.0 1024.4 0.0 NNE 0.0 SW 0.0 262.8
07:15 28.9 38.9 1024.5 0.0 NNE 0.0 SW 0.0 280.1
07:20 29.4 38.1 1024.5 0.0 NNE 0.0 SW 0.0 296.1
07:25 29.6 41.3 1024.5 0.0 NNE 0.0 E 0.0 311.8
07:30 29.3 41.6 1024.5 0.0 NNE 0.0 E 0.0 327.7
07:35 29.4 40.0 1024.5 0.0 NNE 0.0 E 0.0 344.2
07:40 29.5 38.2 1024.5 0.0 NNE 0.0 S 0.0 358.7
07:45 29.5 37.4 1024.5 0.0 SE 3.4 SE 0.0 348.6
07:50 29.4 40.2 1024.5 0.0 NNE 0.0 SE 0.0 386.4
07:55 28.9 43.9 1024.5 0.0 NNE 0.0 NE 0.0 399.3
08:00 28.5 45.6 1024.6 0.0 NNE 0.0 ENE 0.0 412.5
08:05 28.2 46.3 1024.6 0.0 NNE 0.0 NNE 0.0 425.6
08:10 28.2 46.6 1024.7 0.0 NNE 0.0 NNE 0.0 438.3
08:15 28.1 46.5 1024.7 0.0 NNE 0.0 NNE 0.0 451.7
08:20 28.1 45.3 1024.7 0.0 NNE 0.0 NNE 0.0 464.5
08:25 28.2 45.2 1024.7 1.4 NE 8.8 NE 0.0 477.4
08:30 28.2 44.6 1024.7 0.4 ENE 6.1 ENE 0.0 491.1
08:35 28.1 44.3 1024.7 0.0 NNE 0.0 NE 0.0 503.1
08:40 28.0 44.7 1024.8 4.9 ENE 8.8 ENE 0.0 516.6
08:45 28.0 44.4 1024.9 1.1 NE 8.8 ENE 0.0 527.8
08:50 28.0 44.5 1024.9 0.0 NNE 0.0 NE 0.0 540.2
08:55 27.8 45.0 1024.9 0.0 NNE 0.0 ENE 0.0 551.5
09:00 27.9 45.3 1024.9 0.0 NNE 0.0 ENE 0.0 562.7
09:05 28.1 44.7 1025.0 0.0 NNE 0.0 NE 0.0 574.4
09:10 28.3 44.0 1025.0 0.0 NNE 0.0 NNE 0.0 585.3
09:15 28.6 43.1 1025.0 0.8 ENE 8.8 NE 0.0 596.0
09:20 28.5 43.1 1025.1 0.0 NNE 0.0 N 0.0 607.5
09:25 28.6 42.3 1025.1 0.6 ENE 8.8 ENE 0.0 616.2
09:30 28.8 42.0 1025.1 0.0 NNE 0.0 NE 0.0 626.7
09:35 28.6 42.1 1025.1 2.8 ENE 11.5 ENE 0.0 636.1
09:40 28.7 42.5 1025.1 3.4 ENE 11.5 ENE 0.0 645.3
09:45 28.8 41.8 1025.1 3.9 ENE 8.8 E 0.0 654.2
09:50 29.2 41.4 1025.1 1.9 NE 11.5 NE 0.0 662.9
09:55 29.2 41.1 1025.1 0.0 NE 3.4 NE 0.0 669.6
10:00 29.5 40.9 1025.1 3.8 ENE 11.5 NNE 0.0 675.9
10:05 29.3 40.4 1025.1 4.1 ENE 11.5 NE 0.0 684.7
10:10 29.3 40.1 1025.1 5.6 ENE 11.5 ENE 0.0 690.7
10:15 29.5 40.4 1025.1 4.2 ENE 11.5 ENE 0.0 699.0
10:20 29.8 40.1 1025.0 0.0 NNE 0.0 N 0.0 706.5
10:25 29.9 39.8 1025.0 0.0 NNE 0.0 NE 0.0 713.3
10:30 30.0 39.8 1025.0 1.4 NE 11.5 ENE 0.0 719.2
10:35 30.2 39.6 1024.9 3.6 ENE 11.5 ENE 0.0 723.0
10:40 30.2 39.5 1024.9 3.8 ENE 11.5 ENE 0.0 727.3
10:45 30.6 39.0 1024.9 0.0 NNE 0.0 ENE 0.0 732.1
10:50 30.9 38.4 1024.8 0.0 NNE 0.0 NE 0.0 737.7
10:55 30.9 37.5 1024.8 1.5 E 8.8 E 0.0 739.5
11:00 31.1 37.4 1024.8 0.0 NNE 0.0 ENE 0.0 742.2
11:05 31.2 37.8 1024.7 3.2 ENE 11.5 ENE 0.0 746.3
11:10 31.1 37.9 1024.7 4.6 ENE 11.5 E 0.0 747.4
11:15 31.0 37.7 1024.8 5.5 ENE 16.9 NE 0.0 750.3
11:20 31.1 37.5 1024.7 2.3 ENE 11.5 ENE 0.0 752.9
11:25 31.4 36.6 1024.7 4.4 ENE 14.2 E 0.0 746.1
11:30 31.3 37.4 1024.7 5.1 ENE 14.2 NE 0.0 740.4
11:35 31.3 37.2 1024.7 7.6 ENE 14.2 ENE 0.0 736.3
11:40 31.6 37.3 1024.7 3.7 NE 11.5 NNE 0.0 734.4
11:45 31.8 36.4 1024.7 3.8 E 11.5 E 0.0 745.6
11:50 31.7 36.1 1024.7 6.6 E 14.2 ESE 0.0 761.3
11:55 31.7 35.7 1024.7 1.5 E 11.5 ENE 0.0 758.0
12:00 31.8 35.8 1024.6 5.6 ENE 16.9 E 0.0 753.1
12:05 31.6 36.0 1024.6 7.0 ESE 14.2 ENE 0.0 755.2
12:10 31.9 35.5 1024.6 3.6 SE 14.2 E 0.0 755.1
12:15 32.2 35.1 1024.6 6.2 E 14.2 E 0.0 753.0
12:20 32.0 35.1 1024.5 5.8 ENE 14.2 E 0.0 741.5
12:25 32.0 34.6 1024.5 5.6 SE 14.2 ENE 0.0 736.3
12:30 31.8 34.9 1024.5 7.3 E 16.9 ENE 0.0 733.6
12:35 31.9 35.2 1024.4 5.6 E 19.6 ENE 0.0 687.6
12:40 32.1 35.0 1024.4 8.1 E 19.6 ENE 0.0 727.0
12:45 32.0 34.9 1024.5 9.4 E 16.9 E 0.0 725.4
12:50 31.8 35.6 1024.4 9.6 ENE 16.9 NE 0.0 722.9
12:55 31.9 36.2 1024.4 8.2 ENE 16.9 NE 0.0 717.7
13:00 31.7 35.9 1024.4 7.0 ESE 16.9 E 0.0 709.6
13:05 31.5 36.3 1024.4 9.5 E 16.9 NE 0.0 701.0
13:10 31.3 36.9 1024.3 8.3 E 16.9 ENE 0.0 683.2
13:15 31.5 36.5 1024.3 4.6 ESE 11.5 ESE 0.0 685.1
13:20 31.4 36.8 1024.3 3.1 ESE 14.2 E 0.0 685.9
13:25 31.4 36.6 1024.3 6.3 SE 16.9 SSE 0.0 680.5
13:30 31.3 37.4 1024.2 3.4 ESE 11.5 E 0.0 672.5
13:35 31.4 37.0 1024.2 4.1 ESE 16.9 SE 0.0 647.8
13:40 31.0 37.5 1024.2 6.4 E 16.9 NE 0.0 632.4
13:45 31.0 38.1 1024.2 3.6 E 14.2 E 0.0 645.9
13:50 31.1 37.8 1024.2 7.0 ENE 14.2 E 0.0 640.6
13:55 31.1 37.9 1024.2 6.5 E 14.2 E 0.0 630.6
14:00 31.2 37.5 1024.1 2.4 E 11.5 ESE 0.0 612.5
14:05 31.1 37.8 1024.1 4.2 SE 11.5 E 0.0 610.0
14:10 31.1 37.8 1024.1 4.2 E 11.5 ESE 0.0 602.1
14:15 31.0 37.7 1024.2 5.9 E 14.2 ENE 0.0 590.7
14:20 30.8 38.5 1024.0 6.8 E 14.2 E 0.0 579.0
14:25 31.0 38.0 1024.0 5.1 E 14.2 ESE 0.0 567.5
14:30 30.9 38.1 1024.0 6.5 SE 14.2 S 0.0 556.7
14:35 30.9 38.2 1024.0 8.5 SSE 19.6 SE 0.0 545.1
14:40 31.1 38.2 1024.0 5.2 S 14.2 S 0.0 531.8
14:45 31.1 38.7 1024.0 5.7 SSE 14.2 SW 0.0 520.4
14:50 30.9 38.6 1024.1 6.3 SSE 14.2 SE 0.0 506.6
14:55 30.9 39.0 1024.0 3.5 S 14.2 ESE 0.0 494.4
15:00 31.2 39.3 1024.0 1.5 SE 14.2 S 0.0 481.2
15:05 31.0 38.9 1023.9 3.0 SE 11.5 SSE 0.0 467.4
15:10 30.8 39.8 1023.9 5.5 SSE 14.2 SE 0.0 452.9
15:15 30.5 40.7 1023.9 5.2 SSE 14.2 SW 0.0 437.7
15:20 30.4 41.2 1023.9 0.7 SSE 6.1 S 0.0 423.1
15:25 30.4 41.2 1023.9 2.0 ESE 8.8 E 0.0 410.0
15:30 29.9 41.8 1023.9 3.6 ENE 11.5 ENE 0.0 395.9
15:35 29.7 42.7 1023.9 2.4 ENE 11.5 E 0.0 381.6
15:40 29.4 43.4 1023.9 7.8 ENE 14.2 ENE 0.0 367.0
15:45 29.2 43.7 1024.0 6.7 E 14.2 ENE 0.0 349.6
15:50 29.0 44.1 1023.9 5.8 ENE 11.5 E 0.0 265.5
15:55 28.9 44.7 1024.0 2.6 ENE 8.8 ENE 0.0 191.4
16:00 28.7 44.9 1024.0 6.2 ENE 14.2 ENE 0.0 186.6
16:05 28.6 45.1 1023.9 5.0 ENE 11.5 E 0.0 167.2
16:10 28.4 45.5 1024.0 6.1 ENE 11.5 ENE 0.0 194.7
16:15 28.3 45.7 1024.0 4.9 ENE 8.8 E 0.0 154.4
16:20 28.2 45.9 1024.0 4.1 ENE 11.5 ENE 0.0 199.4
16:25 28.0 45.8 1024.0 6.0 ENE 11.5 ENE 0.0 153.6
16:30 27.8 46.3 1023.9 6.8 ENE 11.5 ENE 0.0 95.9
16:35 27.6 46.6 1024.0 4.5 ENE 8.8 ENE 0.0 54.7
16:40 27.4 47.0 1024.0 5.2 ENE 11.5 E 0.0 39.5
16:45 27.1 47.6 1024.0 1.6 ENE 8.8 ENE 0.0 31.4
16:50 26.9 48.0 1024.0 3.8 ENE 8.8 E 0.0 24.7
16:55 26.6 48.8 1024.0 0.9 ENE 6.1 ENE 0.0 22.2
17:00 26.4 49.5 1024.0 0.0 NNE 0.0 ENE 0.0 21.3
17:05 25.9 51.1 1024.0 0.0 NNE 0.0 NE 0.0 20.9
17:10 25.7 51.1 1024.1 0.0 NNE 0.0 ENE 0.0 20.6
17:15 25.6 51.2 1024.1 0.0 NNE 0.0 E 0.0 19.3
17:20 25.2 53.2 1024.1 0.0 NNE 0.0 NE 0.0 19.1
17:25 24.9 53.8 1024.0 0.0 NNE 0.0 NE 0.0 19.7
17:30 25.0 53.5 1024.0 0.0 NNE 0.0 E 0.0 19.8
17:35 24.8 54.2 1024.1 0.0 NNE 0.0 ENE 0.0 20.9
17:40 24.4 55.5 1024.1 0.0 NNE 0.0 N 0.0 22.7
17:45 24.4 55.2 1024.1 0.0 NNE 0.0 NNE 0.0 21.9
17:50 24.5 55.1 1024.0 0.0 NNE 0.0 ENE 0.0 19.8
17:55 24.4 55.4 1024.1 0.0 NNE 0.0 NNE 0.0 16.8
18:00 24.2 55.7 1024.1 0.0 NNE 0.0 NNW 0.0 13.8
18:05 24.1 56.1 1024.1 0.0 NNE 0.0 NNW 0.0 11.0
18:10 24.0 56.6 1024.1 0.0 NNE 0.0 WNW 0.0 7.9
Máxima 32.2 56.6 1025.1 9.6 ENE 22.3 NNW 0.0 761.3
Mínima 20 34.6 1023.7
Total 0.0